Location: Stoke Bliss
(52.2667°N, 2.5167°W)
Time: 21:40:48
(UTC+00:00)

H-2A R/B - Pass Details

Date: 03 March 2021
Orbit: 732 x 837 km, 98.2° (Epoch: 15 April)

Event Time Altitude Azimuth Distance (km) Brightness Sun altitude
Rises 19:42:35 0° 195° (SSW) 3,372 5.4 -17.4°
Reaches altitude 10° 19:45:13 10° 206° (SSW) 2,447 4.8 -17.8°
Maximum altitude 19:49:58 30° 267° (W) 1,461 4.1 -18.5°
Drops below altitude 10° 19:54:44 10° 328° (NNW) 2,455 5.3 -19.2°
Sets 19:57:24 0° 339° (NNW) 3,386 5.9 -19.6°
